Date,TemperatureHighF,TemperatureAvgF,TemperatureLowF,DewpointHighF,DewpointAvgF,DewpointLowF,HumidityHigh,HumidityAvg,HumidityLow,PressureMaxIn,PressureMinIn,WindSpeedMaxMPH,WindSpeedAvgMPH,GustSpeedMaxMPH,PrecipitationSumIn
2013-1-1,39.7,31.9,29.1,39.5,31.7,28.9,99,99,99,29.74,29.60,4,0,4,0.00
2013-1-2,48.1,34.6,29.3,47.8,34.0,29.1,99,98,85,29.60,29.44,4,0,4,0.00
2013-1-3,46.2,34.2,28.0,43.6,33.5,27.8,99,98,83,29.44,29.32,6,0,6,0.11
2013-1-4,41.5,38.4,35.8,41.3,38.2,35.5,99,99,99,29.54,29.36,4,0,2,0.18
2013-1-5,41.7,39.7,38.1,41.5,39.5,37.9,99,99,99,29.43,29.29,8,1,9,0.26
2013-1-6,39.9,38.5,35.4,39.7,38.2,35.2,99,99,99,29.36,29.20,8,2,8,0.52
2013-1-7,41.5,37.8,33.6,41.3,37.6,33.4,99,99,99,29.35,29.02,10,2,11,0.65
2013-1-8,45.9,38.2,34.5,45.6,38.0,34.3,99,99,99,29.37,28.84,15,3,15,0.93
2013-1-9,44.8,40.4,34.9,44.5,39.6,34.6,99,97,87,29.13,28.85,14,2,14,0.02
2013-1-10,45.7,34.0,27.0,40.6,32.9,26.2,99,96,74,29.37,29.13,7,0,7,0.04
2013-1-11,45.3,30.6,23.9,32.3,24.3,19.5,99,80,43,29.55,29.37,6,1,6,0.00
2013-1-12,41.9,28.3,21.4,31.8,24.1,20.7,99,85,59,29.67,29.55,6,1,6,0.00
2013-1-13,37.2,27.4,21.2,33.4,24.1,21.0,99,88,64,29.71,29.66,6,0,6,0.00
2013-1-14,32.4,30.2,26.4,99.9,29.4,22.6,99,96,85,29.81,29.68,6,0,6,0.00
2013-1-15,38.1,33.7,31.5,37.1,32.7,30.1,99,96,87,29.93,29.80,4,0,5,0.06
2013-1-16,44.2,33.5,29.1,38.1,30.4,27.6,97,89,73,29.91,29.75,5,1,4,0.00
2013-1-17,50.5,35.6,28.3,44.0,33.5,28.1,99,92,72,29.76,29.51,4,0,4,0.00
2013-1-18,45.0,33.8,28.8,44.7,33.3,28.5,99,98,89,29.57,29.49,6,0,6,0.00
2013-1-19,44.6,32.7,26.7,43.8,32.4,26.4,99,99,93,29.62,29.57,2,0,4,0.00
2013-1-20,50.0,35.4,28.0,46.2,34.5,27.8,99,97,77,29.62,29.50,2,0,3,0.00
2013-1-21,44.8,31.4,24.8,42.4,30.7,24.6,99,97,83,29.50,29.35,3,0,6,0.01
2013-1-22,39.3,32.2,26.1,39.1,32.0,25.8,99,99,99,29.37,29.14,3,0,6,0.00
2013-1-23,42.3,39.5,34.5,42.0,39.2,34.3,99,99,97,29.30,29.04,8,1,14,0.66
2013-1-24,42.8,38.9,36.1,42.5,38.7,35.9,99,99,99,29.41,29.25,3,0,8,0.27
2013-1-25,51.9,42.3,37.6,50.2,41.4,37.3,99,97,86,29.28,29.12,3,0,8,0.09
2013-1-26,42.3,38.2,35.1,41.6,37.9,34.9,99,99,94,29.23,29.08,3,0,6,0.07
2013-1-27,39.4,36.3,34.3,39.1,36.0,34.1,99,99,99,29.23,29.17,1,0,5,0.33
2013-1-28,38.1,37.1,36.0,37.9,36.8,35.7,99,99,99,29.24,29.17,7,1,13,0.13
2013-1-29,40.5,38.2,36.0,40.2,37.9,35.7,99,99,99,29.52,29.24,5,0,10,0.09
2013-1-30,41.9,40.3,38.1,41.6,40.0,37.9,99,99,99,29.59,29.52,0,0,4,0.06
2013-1-31,45.0,42.6,40.1,44.7,42.3,39.8,99,99,99,29.59,29.50,3,0,10,0.26
2013-2-1,47.1,42.3,37.4,46.9,42.1,37.1,99,99,99,29.66,29.55,1,0,5,0.01
2013-2-2,51.1,39.5,33.6,48.3,38.9,33.4,99,98,86,29.64,29.46,3,0,7,0.01
2013-2-3,40.7,38.9,36.7,40.4,38.6,36.4,99,99,99,29.53,29.39,1,0,7,0.14
2013-2-4,43.3,41.8,40.3,43.1,41.5,40.0,99,99,99,29.39,29.06,5,0,11,0.06
2013-2-5,45.0,42.4,40.1,44.8,42.2,39.9,99,99,99,29.09,28.98,10,1,18,0.32
2013-2-6,43.7,41.1,39.0,43.4,40.9,38.8,99,99,99,29.23,28.99,6,1,13,0.45
2013-2-7,51.5,40.8,32.7,44.1,38.9,32.5,99,93,66,29.42,28.98,6,0,12,0.04
2013-2-8,43.9,36.8,31.3,42.7,35.9,31.0,99,97,86,29.52,29.42,0,0,2,0.01
2013-2-9,44.2,38.4,34.5,40.5,37.0,34.3,99,95,82,29.58,29.48,2,0,6,0.00
2013-2-10,51.1,38.5,30.4,40.3,35.7,30.1,99,91,64,29.60,29.53,5,0,9,0.00
2013-2-11,40.6,38.8,37.2,40.4,38.5,37.0,99,99,99,29.56,29.53,1,0,5,0.13
2013-2-12,44.4,41.9,39.2,44.2,41.6,38.9,99,99,99,29.59,29.42,3,0,8,0.09
2013-2-13,48.9,42.7,38.7,46.2,41.1,38.4,99,94,78,29.71,29.45,6,1,10,0.00
2013-2-14,40.5,39.8,39.0,40.2,39.6,38.8,99,99,99,29.78,29.69,3,0,6,0.05
2013-2-15,46.4,42.4,35.6,46.1,41.7,35.3,99,97,86,29.50,28.98,1,0,8,0.00
2013-2-16,52.5,44.8,35.6,49.4,40.3,35.3,99,85,69,29.35,28.98,15,4,15,0.21
2013-2-17,47.3,40.3,37.2,43.8,37.9,35.4,99,91,76,29.44,29.34,10,2,10,0.00
2013-2-18,40.3,37.7,36.3,40.0,37.2,35.8,99,98,94,29.34,29.00,7,1,7,0.07
2013-2-19,52.7,40.7,33.4,43.6,36.9,32.9,99,88,59,29.21,28.99,10,2,10,0.00
2013-2-20,37.2,35.0,31.5,37.0,34.7,31.2,99,99,94,29.25,29.21,8,1,8,0.27
2013-2-21,39.6,37.3,35.1,39.3,37.1,34.8,99,99,99,29.24,29.17,14,2,14,0.40
2013-2-22,47.5,38.9,34.3,44.3,37.6,34.1,99,96,79,29.20,28.79,22,5,22,1.75
2013-2-23,52.2,41.0,34.9,44.1,36.4,31.6,99,85,57,29.54,29.02,17,2,17,0.00
2013-2-24,39.0,37.9,37.0,38.8,37.6,36.8,99,99,95,29.55,29.10,8,2,8,0.97
2013-2-25,50.5,40.9,34.3,43.3,36.6,31.5,99,86,56,29.46,28.98,29,7,29,0.38
2013-2-26,44.6,37.1,33.3,43.1,36.6,32.5,99,98,90,29.54,29.38,7,2,7,0.35
2013-2-27,44.2,38.2,34.2,44.0,38.0,33.9,99,99,97,29.54,29.39,6,1,6,0.06
2013-2-28,43.0,38.1,33.8,42.7,37.8,33.5,99,99,99,29.50,29.42,8,1,6,1.26
2013-3-1,49.6,47.6,42.3,49.4,47.3,42.0,99,99,99,29.49,29.44,12,3,12,2.07
2013-3-2,48.7,45.1,38.8,48.5,44.6,37.5,99,98,94,29.45,29.20,17,6,17,0.81
2013-3-3,54.0,40.7,31.8,44.3,35.8,31.6,99,84,55,29.53,29.32,17,2,17,0.00
2013-3-4,57.0,41.8,30.9,42.3,31.6,26.3,99,71,38,29.53,29.20,10,2,10,0.00
2013-3-5,47.8,41.9,38.1,38.6,32.8,26.9,99,71,53,29.21,28.99,9,1,9,0.06
2013-3-6,46.4,41.1,36.7,43.6,39.7,36.4,99,95,80,29.10,28.84,8,2,8,0.08
2013-3-7,48.0,40.6,36.1,46.9,39.6,35.9,99,96,84,29.33,29.10,8,1,8,0.08
2013-3-8,55.8,42.1,33.6,44.7,38.2,33.4,99,87,62,29.46,29.31,10,2,10,0.00
2013-3-9,56.5,43.6,33.4,43.3,37.7,33.2,99,82,53,29.71,29.46,9,2,9,0.00
2013-3-10,44.8,42.4,39.9,44.2,40.0,36.0,99,92,79,29.71,29.63,7,2,8,0.01
2013-3-11,52.5,43.7,38.7,46.7,40.1,37.0,99,88,61,29.65,29.36,10,2,8,0.18
2013-3-12,49.3,44.1,37.4,49.0,43.8,37.1,99,99,99,29.36,29.20,11,4,13,2.48
2013-3-13,49.5,48.5,47.8,49.2,48.2,47.6,99,99,99,29.39,29.25,15,4,15,1.37
2013-3-14,50.5,48.0,45.5,50.3,47.7,45.1,99,99,99,29.34,29.23,10,2,10,0.65
2013-3-15,53.2,47.0,44.1,53.0,46.7,43.8,99,99,99,29.42,29.32,6,1,6,0.15
2013-3-16,49.5,43.5,37.2,48.8,42.1,36.3,99,95,66,29.33,29.01,20,6,20,0.25
2013-3-17,50.4,41.8,34.5,38.6,34.4,28.1,99,77,46,29.33,29.10,17,5,20,0.01
2013-3-18,53.8,42.3,34.2,40.2,34.2,28.1,99,76,44,29.47,29.22,17,6,20,0.22
2013-3-19,48.7,39.3,32.5,36.1,32.3,29.4,92,77,55,29.46,29.10,13,2,13,0.00
2013-3-20,45.9,38.2,36.0,39.8,37.7,35.5,99,98,68,29.11,28.82,28,10,28,0.14
2013-3-21,51.6,40.2,32.7,40.4,33.5,27.5,99,79,40,29.38,29.12,14,4,17,0.00
2013-3-22,47.1,36.8,32.4,39.8,34.5,31.0,99,92,67,29.59,29.37,12,1,12,0.04
2013-3-23,53.1,40.1,32.0,36.6,32.0,29.1,97,75,43,29.61,29.53,9,2,9,0.04
2013-3-24,58.8,43.6,33.4,37.1,31.0,27.1,90,65,32,29.53,29.36,8,1,8,0.00
2013-3-25,64.9,48.6,38.5,41.6,34.3,29.7,80,60,35,29.37,29.19,12,1,12,0.00
2013-3-26,63.0,48.7,38.1,43.4,37.9,34.0,87,68,46,29.25,29.20,12,2,12,0.00
2013-3-27,67.3,51.1,39.4,46.7,41.4,37.4,94,72,45,29.23,29.17,12,2,12,0.00
2013-3-28,67.3,53.3,45.0,49.1,43.2,40.0,85,70,47,29.37,29.23,13,2,13,0.00
2013-3-29,67.5,53.2,43.7,50.4,44.6,40.1,90,74,48,29.49,29.37,13,2,13,0.00
2013-3-30,69.1,53.8,42.4,50.0,44.3,40.7,95,73,42,29.51,29.33,11,2,11,0.00
2013-3-31,74.3,56.9,42.6,50.5,42.3,37.4,85,61,31,29.33,29.15,9,1,10,0.00
2013-4-1,65.5,55.0,46.8,50.9,45.2,39.8,90,70,54,29.35,29.18,13,4,13,0.00
2013-4-2,53.6,50.7,47.8,48.1,45.8,43.1,92,83,76,29.42,29.34,10,2,10,0.00
2013-4-3,64.0,51.9,43.7,50.4,45.0,40.8,99,79,57,29.42,29.20,8,1,8,0.00
2013-4-4,55.2,50.7,47.8,52.4,47.5,43.5,99,89,71,29.20,28.81,14,2,14,0.66
2013-4-5,52.0,49.3,46.4,51.7,49.0,46.1,99,99,99,29.06,28.87,16,4,16,0.66
2013-4-6,57.9,47.7,42.1,47.9,44.0,37.5,99,89,53,29.08,28.87,20,6,20,0.26
2013-4-7,42.3,41.3,40.8,42.0,41.1,40.6,99,99,99,29.02,28.79,7,2,7,0.00
2013-4-8,58.6,48.0,45.0,47.6,44.5,43.3,99,88,62,29.55,29.36,3,0,7,0.04
2013-4-9,58.8,46.6,43.7,50.8,45.3,43.4,99,96,59,29.53,29.07,6,1,10,0.90
2013-4-10,60.1,50.1,43.2,45.8,42.6,37.3,99,78,47,29.47,29.23,8,4,15,0.91
2013-4-11,57.4,44.5,39.7,38.2,36.8,35.3,87,76,45,29.47,29.19,5,0,8,0.00
2013-4-12,42.6,38.1,36.3,39.8,37.6,36.1,99,98,84,29.19,28.82,18,3,18,0.81
2013-4-13,54.3,40.3,34.3,46.5,37.7,33.1,99,91,62,29.18,28.84,23,4,23,0.05
2013-4-14,57.4,44.7,35.8,42.9,37.9,34.0,99,79,52,29.22,29.13,10,2,11,0.00
2013-4-15,61.5,46.5,38.3,47.1,40.7,37.5,99,82,47,29.41,29.15,10,2,10,0.06
2013-4-16,64.0,49.1,36.9,40.3,34.4,27.4,93,61,30,29.61,29.41,10,2,10,0.00
2013-4-17,61.2,49.2,40.1,44.6,37.6,31.9,91,65,41,29.65,29.59,13,4,13,0.00
2013-4-18,47.3,44.2,42.3,47.0,44.0,42.0,99,99,91,29.65,29.39,9,2,9,0.77
2013-4-19,59.9,48.4,42.6,54.5,47.4,42.4,99,97,78,29.39,29.28,10,3,10,0.35
2013-4-20,59.7,49.7,43.9,49.1,46.3,43.6,99,89,62,29.43,29.33,17,6,17,0.04
2013-4-21,57.0,45.7,37.9,48.0,42.3,37.3,99,89,63,29.62,29.41,13,3,16,0.06
2013-4-22,64.2,49.0,33.6,39.0,31.5,19.6,99,58,18,29.77,29.62,15,2,15,0.00
2013-4-23,67.3,52.5,41.0,44.1,36.8,31.6,73,57,38,29.64,29.50,10,3,10,0.00
2013-4-24,68.3,54.3,42.4,47.1,40.4,36.4,81,61,39,29.55,29.28,13,3,13,0.00
2013-4-25,68.4,55.8,43.5,48.5,42.8,37.6,83,63,47,29.36,29.26,12,3,13,0.00
2013-4-26,61.7,54.9,45.5,48.7,44.2,39.7,90,68,49,29.47,29.34,9,2,9,0.00
2013-4-27,53.4,49.9,46.8,50.8,46.1,41.2,99,88,65,29.40,29.32,20,3,20,0.33
2013-4-28,58.5,48.0,40.6,46.5,42.5,36.4,99,83,47,29.40,29.08,16,4,16,0.33
2013-4-29,56.7,48.6,42.1,44.6,34.9,28.4,96,62,36,29.30,29.08,23,10,24,0.00
2013-4-30,59.4,46.9,34.9,39.6,34.2,29.7,89,64,36,29.65,29.30,13,3,13,0.00
2013-5-1,65.3,51.0,38.7,39.9,35.5,30.9,80,57,37,29.82,29.65,13,3,13,0.00
2013-5-2,67.5,54.0,43.5,49.2,41.6,36.1,87,65,36,29.78,29.62,10,2,11,0.00
2013-5-3,76.6,59.1,43.2,50.7,46.2,41.6,96,66,34,29.64,29.48,11,2,11,0.00
2013-5-4,83.7,66.9,50.0,52.4,45.4,40.9,75,50,24,29.50,29.25,12,2,12,0.00
2013-5-5,91.8,72.8,54.3,53.0,45.9,41.0,64,41,20,29.25,29.01,10,2,10,0.00
2013-5-6,86.9,71.8,56.5,52.9,47.5,41.1,63,44,27,29.10,28.99,10,3,10,0.00
2013-5-7,71.8,63.8,54.7,54.5,50.7,46.0,78,63,53,29.20,29.03,13,3,13,0.00
2013-5-8,68.2,59.0,50.5,55.6,52.4,49.0,98,80,63,29.36,29.20,12,4,12,0.00
2013-5-9,76.8,62.0,49.5,60.0,53.9,49.2,99,77,54,29.44,29.33,13,3,13,0.00
2013-5-10,78.8,65.3,52.0,59.3,55.1,50.3,99,72,49,29.43,29.34,10,2,10,0.00
2013-5-11,79.6,65.3,57.2,59.3,54.5,49.2,99,70,46,29.39,29.20,10,2,12,0.13
2013-5-12,63.5,58.5,55.6,63.2,58.0,55.1,99,98,90,29.29,29.21,9,2,10,0.85
2013-5-13,61.5,54.4,48.9,60.3,52.9,46.5,99,95,80,29.37,29.10,16,4,16,0.13
2013-5-14,67.3,53.3,45.1,52.2,45.4,39.2,99,78,39,29.44,29.35,10,2,10,0.00
2013-5-15,68.5,57.3,48.0,51.4,47.1,44.8,94,71,45,29.36,29.21,10,3,10,0.00
2013-5-16,70.9,58.5,50.4,56.0,51.3,46.4,99,79,54,29.25,29.10,10,2,13,0.00
2013-5-17,60.4,53.6,49.6,55.7,52.2,47.8,99,95,82,29.26,29.14,13,2,13,0.08
2013-5-18,62.8,53.8,38.7,57.9,51.9,38.4,99,94,75,29.49,28.95,10,1,10,0.09
2013-5-19,69.4,56.6,50.5,56.7,51.3,46.4,99,84,59,29.61,29.49,8,2,9,0.00
2013-5-20,68.5,56.9,47.1,53.5,49.1,46.6,99,77,53,29.57,29.12,12,2,12,0.00
2013-5-21,52.0,48.5,46.0,49.9,47.7,45.8,99,97,83,29.12,29.00,9,3,8,0.34
2013-5-22,65.5,52.3,45.3,52.8,47.4,45.1,99,85,56,29.18,29.06,12,2,12,0.15
2013-5-23,63.0,52.0,40.8,52.8,45.7,40.6,99,81,52,29.24,29.17,13,3,14,0.15
2013-5-24,64.8,54.1,43.0,51.6,46.0,42.5,99,76,51,29.25,29.20,17,4,17,0.00
2013-5-25,66.4,53.3,46.0,55.2,48.0,42.4,96,83,61,29.26,29.22,6,1,6,0.02
2013-5-26,64.8,54.5,48.0,53.7,50.4,46.1,99,87,60,29.22,29.17,11,2,11,0.02
2013-5-27,65.1,55.1,51.4,54.4,52.3,50.1,99,91,63,29.17,28.94,7,2,7,0.31
2013-5-28,56.5,52.2,50.4,56.2,52.0,50.1,99,99,99,29.10,28.97,8,2,8,1.20
2013-5-29,55.9,51.7,48.7,55.7,51.4,48.3,99,99,99,29.15,28.90,10,2,10,0.47
2013-5-30,60.3,52.3,47.1,53.5,49.7,46.9,99,91,75,29.46,29.15,10,2,13,0.00
2013-5-31,67.5,55.7,48.0,56.2,49.8,44.9,99,83,52,29.57,29.46,8,1,10,0.05
2013-6-1,72.0,58.4,50.2,55.3,50.3,47.0,94,76,47,29.47,29.30,7,1,8,0.00
2013-6-2,77.4,59.9,47.7,55.8,51.1,47.4,99,75,43,29.31,29.25,10,3,13,0.00
2013-6-3,75.6,62.1,50.0,56.2,51.5,47.7,95,70,45,29.34,29.29,13,3,13,0.00
2013-6-4,85.8,66.6,51.8,58.5,52.8,47.1,94,64,33,29.37,29.25,13,2,13,0.00
2013-6-5,78.6,66.4,58.1,60.6,53.9,47.1,77,64,52,29.31,29.25,15,3,15,0.00
2013-6-6,78.8,67.0,53.6,59.7,54.6,49.4,95,67,43,29.28,29.21,14,3,14,0.00
2013-6-7,70.9,59.6,52.7,58.1,52.4,45.3,99,78,62,29.35,29.21,10,2,10,0.15
2013-6-8,71.1,57.1,50.5,54.9,50.1,46.8,92,78,55,29.39,29.32,8,2,8,0.00
2013-6-9,69.3,57.7,50.9,61.0,52.1,46.2,99,83,53,29.32,29.24,13,2,14,0.05
2013-6-10,73.2,59.8,46.2,54.6,49.3,45.3,99,71,44,29.25,29.09,13,3,13,0.00
2013-6-11,65.7,57.2,52.7,50.2,48.1,45.7,84,72,52,29.30,29.12,13,3,13,0.00
2013-6-12,64.2,55.3,49.5,58.4,50.8,46.0,99,86,64,29.36,29.30,8,1,8,0.18
2013-6-13,69.8,57.3,46.0,54.8,50.1,45.8,99,79,52,29.39,29.35,13,2,13,0.00
2013-6-14,68.1,55.2,50.7,61.4,52.4,49.5,99,91,65,29.45,29.31,7,1,6,0.21
2013-6-15,80.9,63.6,48.0,59.1,53.4,47.8,99,73,42,29.31,29.15,8,2,8,0.00
2013-6-16,76.8,65.8,56.3,58.2,55.3,52.3,97,71,48,29.31,29.20,14,4,14,0.00
2013-6-17,77.2,67.1,58.6,56.6,54.4,51.8,89,66,43,29.30,29.12,13,3,13,0.00
2013-6-18,75.1,63.0,55.0,59.4,53.8,47.8,99,75,44,29.19,29.11,17,2,17,0.07
2013-6-19,65.7,58.0,52.7,61.4,54.9,49.5,99,89,74,29.18,29.10,8,1,11,0.05
2013-6-20,56.5,54.4,52.0,56.2,54.1,51.7,99,99,99,29.30,29.08,13,4,13,0.81
2013-6-21,65.5,57.4,51.1,60.2,54.8,50.8,99,92,75,29.39,29.30,6,1,6,0.01
2013-6-22,75.9,64.0,55.8,59.7,56.7,53.5,99,79,53,29.35,29.11,8,1,6,0.00
2013-6-23,75.6,63.9,54.5,62.7,57.9,52.5,99,82,58,29.11,28.84,6,1,5,0.04
2013-6-24,66.9,59.4,56.5,63.9,58.6,56.2,99,97,84,28.92,28.78,14,2,14,0.60
2013-6-25,74.3,60.5,54.7,63.6,57.6,54.4,99,91,60,29.06,28.90,14,1,14,0.33
2013-6-26,67.8,60.4,55.6,65.8,59.5,55.3,99,97,88,29.31,29.06,7,1,6,0.14
2013-6-27,68.0,62.2,57.7,65.6,61.4,57.5,99,97,89,29.45,29.27,6,1,6,0.07
2013-6-28,77.5,67.6,59.5,69.1,64.3,59.3,99,90,70,29.45,29.30,5,1,5,0.00
2013-6-29,86.7,73.3,62.6,69.4,64.9,62.3,99,77,52,29.33,29.23,10,3,10,0.00
2013-6-30,96.8,79.3,63.1,70.5,65.6,60.6,98,67,40,29.25,29.09,8,2,8,0.00
2013-7-1,94.5,79.0,67.8,69.2,64.1,58.4,89,62,39,29.23,29.13,13,4,13,0.00
2013-7-2,81.3,72.1,62.6,64.8,59.5,55.4,79,65,51,29.31,29.23,10,4,13,0.00
2013-7-3,81.9,67.6,55.6,61.3,55.8,51.7,90,68,36,29.37,29.25,13,4,13,0.00
2013-7-4,73.3,62.7,53.2,59.4,54.2,46.6,96,75,55,29.32,29.24,12,3,12,0.00
2013-7-5,80.4,66.0,53.2,59.3,55.0,51.0,93,70,44,29.25,29.15,13,3,13,0.00
2013-7-6,85.8,69.2,55.4,60.1,56.4,53.4,94,67,36,29.21,29.06,13,4,13,0.00
2013-7-7,80.2,69.5,59.5,62.8,58.0,55.0,91,69,43,29.16,29.09,14,3,14,0.00
2013-7-8,79.7,68.5,58.6,63.5,59.7,56.0,99,75,49,29.31,29.16,13,3,13,0.00
2013-7-9,85.5,72.3,59.4,64.0,60.8,57.6,97,70,45,29.33,29.20,13,4,13,0.00
2013-7-10,77.4,66.2,55.4,61.2,55.5,46.2,94,70,47,29.25,29.13,13,3,13,0.00
2013-7-11,70.3,60.5,52.3,54.6,49.5,46.0,88,69,46,29.27,29.16,14,4,14,0.00
2013-7-12,75.9,62.5,51.3,55.9,50.0,46.3,89,66,38,29.31,29.22,14,4,14,0.00
2013-7-13,81.7,65.1,51.6,57.7,51.7,47.6,88,64,36,29.42,29.30,11,3,11,0.05
2013-7-14,81.5,67.2,55.2,58.9,54.4,50.1,86,65,41,29.35,29.23,13,3,13,0.00
2013-7-15,85.3,71.1,57.2,56.2,51.7,48.2,83,54,29,29.30,29.15,13,2,14,0.00
2013-7-16,94.3,76.5,63.9,62.4,52.6,45.8,62,45,22,29.16,29.05,11,2,11,0.00
2013-7-17,81.1,71.5,62.8,63.9,58.4,53.4,79,64,49,29.41,29.08,15,4,15,0.00
2013-7-18,82.9,70.5,61.5,63.2,59.0,55.6,83,68,49,29.44,29.33,15,4,15,0.00
2013-7-19,82.8,70.2,58.3,65.5,60.9,56.4,97,74,54,29.38,29.25,12,4,12,0.00
2013-7-20,77.5,67.1,56.8,63.6,59.6,56.5,99,78,58,29.28,29.17,12,4,12,0.00
2013-7-21,77.2,66.5,55.2,63.2,58.0,53.7,95,76,57,29.18,29.12,13,4,13,0.00
2013-7-22,80.4,67.9,56.1,64.8,59.7,55.8,99,77,56,29.25,29.15,10,3,10,0.00
2013-7-23,91.4,73.0,59.5,64.6,59.9,54.8,98,67,32,29.29,29.18,13,3,13,0.00
2013-7-24,87.4,72.9,58.8,65.3,58.2,54.8,90,62,40,29.28,29.20,10,3,10,0.00
2013-7-25,87.4,71.9,58.5,63.2,58.7,55.8,99,67,37,29.31,29.24,15,3,15,0.00
2013-7-26,82.6,70.0,58.1,61.2,57.5,54.1,93,67,41,29.36,29.28,15,3,15,0.00
2013-7-27,78.1,66.5,55.4,60.9,56.2,51.7,99,72,48,29.35,29.21,13,3,13,0.00
2013-7-28,78.6,66.5,56.1,60.6,56.0,51.6,90,70,50,29.22,29.14,13,4,13,0.00
2013-7-29,78.3,66.5,56.7,61.6,57.9,55.1,97,75,55,29.22,29.14,13,4,13,0.00
2013-7-30,78.8,68.2,58.1,63.2,58.3,55.4,98,72,51,29.33,29.21,13,4,13,0.00
2013-7-31,79.5,68.2,58.1,64.1,59.6,56.0,97,75,57,29.33,29.20,13,3,13,0.00
2013-8-1,73.6,65.6,60.1,62.1,59.7,56.5,99,82,65,29.25,29.20,15,3,15,0.01
2013-8-2,61.9,59.2,56.7,61.6,58.6,56.4,99,98,88,29.35,29.25,6,1,6,0.21
2013-8-3,78.4,66.1,58.6,64.6,60.6,57.2,99,84,57,29.35,29.27,8,1,8,0.00
2013-8-4,86.0,69.7,58.6,67.2,62.3,58.4,99,80,48,29.29,29.16,10,2,11,0.00
2013-8-5,88.7,72.3,59.5,67.6,61.9,56.4,99,73,42,29.23,29.15,10,3,10,0.00
2013-8-6,84.9,71.6,58.6,64.1,60.2,56.8,99,70,43,29.22,29.14,13,3,13,0.00
2013-8-7,83.1,72.3,60.3,63.7,59.2,56.0,93,66,45,29.22,29.15,12,3,12,0.00
2013-8-8,87.6,71.4,57.7,65.7,60.6,55.9,97,71,48,29.24,29.14,13,3,13,0.00
2013-8-9,90.9,73.5,59.2,67.3,62.1,58.0,98,71,43,29.17,29.01,10,2,13,0.00
2013-8-10,81.0,71.1,62.2,64.7,60.6,56.7,84,70,53,29.20,29.06,14,3,14,0.00
2013-8-11,78.4,66.6,59.2,65.9,58.0,53.6,99,74,60,29.28,29.19,12,3,12,0.09
2013-8-12,80.6,68.8,61.2,63.7,58.9,55.8,87,72,50,29.28,29.21,13,3,13,0.00
2013-8-30,77.5,64.2,54.0,65.3,59.1,53.7,99,86,57,29.38,29.20,1,0,2,0.01
2013-8-31,83.5,70.1,59.2,64.3,60.5,58.3,99,74,52,29.20,29.06,2,0,4,0.01
2013-9-1,81.9,69.6,61.5,65.8,61.1,58.0,99,76,51,29.10,29.01,0,0,2,0.01
2013-9-2,82.0,67.5,61.3,68.8,62.3,60.9,99,86,51,29.21,29.08,0,0,3,0.14
2013-9-3,75.2,63.6,58.3,68.8,62.2,58.0,99,96,73,29.26,29.20,0,0,1,0.15
2013-9-4,76.3,65.1,59.0,66.4,61.8,58.7,99,91,64,29.25,29.06,1,0,2,0.01
2013-9-5,67.3,63.8,61.7,66.4,63.5,61.4,99,99,97,29.23,29.12,11,1,9,0.15
2013-9-6,73.8,63.9,59.0,67.9,63.0,58.7,99,97,81,29.30,29.11,8,1,8,0.00
2013-9-7,81.0,67.4,61.2,68.5,63.1,59.8,99,87,60,29.31,29.24,9,2,9,0.04
2013-9-8,75.6,66.2,58.8,68.7,63.5,58.5,99,92,73,29.32,29.23,6,1,6,0.00
2013-9-9,81.5,69.4,59.0,66.4,62.3,58.7,99,80,57,29.25,29.19,8,1,8,0.00
2013-9-10,89.1,70.3,58.5,70.4,63.6,58.2,99,82,53,29.23,29.13,8,1,8,0.00
2013-9-11,81.9,81.7,81.5,57.2,57.0,56.8,43,43,43,29.11,29.11,1,1,1,0.00
2013-9-12,85.8,85.4,85.1,66.0,65.8,65.4,53,52,51,29.14,29.13,8,7,8,0.00
2013-9-13,74.3,68.6,59.4,65.3,62.8,59.1,99,83,72,29.13,29.08,11,4,11,0.00
2013-9-14,77.4,65.4,59.2,68.2,63.6,58.9,99,95,74,29.10,29.01,4,2,4,0.00
2013-9-15,63.5,60.3,57.4,63.2,60.0,57.1,99,99,99,28.94,28.91,5,2,5,0.00
2013-9-16,60.1,59.5,59.0,59.8,59.2,58.7,99,99,99,28.97,28.97,7,0,14,0.37
2013-9-17,63.5,63.1,62.6,59.4,59.3,59.0,89,87,87,29.04,29.04,6,5,6,0.00
2013-9-19,78.3,73.5,56.5,53.0,51.4,48.7,88,48,38,29.25,28.99,6,2,6,0.00
2013-9-21,69.4,59.1,56.3,56.4,56.0,54.1,99,91,62,28.89,28.84,8,2,8,0.06
2013-9-22,57.2,55.6,54.5,55.8,55.0,54.2,99,98,95,28.87,28.76,10,4,10,0.98
2013-9-23,60.4,53.8,49.6,54.9,52.3,49.4,99,95,83,29.14,29.04,10,4,10,0.25
2013-9-24,60.4,59.2,57.0,54.4,53.9,52.4,86,82,81,29.08,29.06,4,1,4,0.00
2013-9-25,67.6,56.5,50.7,53.3,50.8,49.5,97,82,60,29.21,29.13,6,1,6,0.00
2013-9-26,69.3,61.0,48.6,53.8,51.5,46.9,99,74,58,29.29,29.22,9,4,9,0.00
2013-9-27,52.0,50.4,49.5,49.7,49.6,49.2,99,97,92,29.28,29.09,0,0,0,0.35
2013-9-28,50.0,50.0,50.0,49.7,49.7,49.7,99,99,99,28.99,28.49,0,0,0,0.00
2013-9-29,50.0,50.0,50.0,49.7,49.7,49.7,99,99,99,28.63,28.62,0,0,0,0.00
2013-9-30,50.0,50.0,50.0,49.7,49.7,49.7,99,99,99,28.95,28.75,0,0,0,0.00
2013-10-1,50.0,50.0,50.0,49.7,49.7,49.7,99,99,99,29.20,29.15,0,0,0,0.00
2013-10-2,50.0,50.0,50.0,49.7,49.7,49.7,99,99,99,29.27,29.27,0,0,0,0.00
2013-10-3,50.0,50.0,50.0,49.7,49.7,49.7,99,99,99,29.58,29.39,0,0,0,0.00
2013-10-4,50.0,50.0,50.0,49.7,49.7,49.7,99,99,99,29.65,29.63,0,0,0,0.00
2013-10-5,50.0,50.0,50.0,49.7,30.9,30.5,99,48,47,29.52,29.24,10,10,10,0.00
2013-10-6,78.8,55.7,50.0,49.1,36.2,30.5,69,48,33,29.24,29.00,10,6,10,0.00
2013-10-7,60.4,53.1,49.8,56.8,49.2,44.6,99,87,59,29.11,29.01,13,4,15,0.21
2013-10-8,62.6,51.1,43.2,50.3,44.4,39.4,99,80,51,29.29,29.09,13,4,13,0.06
2013-10-9,63.0,49.2,40.1,47.5,42.3,39.5,99,79,48,29.33,29.14,8,1,8,0.00
2013-10-10,64.2,50.8,43.0,50.1,44.2,40.3,95,79,52,29.26,29.12,9,1,9,0.00
2013-10-11,55.0,47.2,41.0,51.8,44.4,40.7,99,90,75,29.34,29.25,6,0,6,0.00
2013-10-12,63.9,49.3,41.7,48.3,44.6,41.5,99,86,50,29.41,29.27,8,1,8,0.00
2013-10-13,63.6,49.3,40.5,46.1,42.3,39.1,99,80,44,29.56,29.41,8,1,8,0.00
2013-10-14,69.3,50.6,39.6,55.3,43.7,39.3,99,80,44,29.62,29.56,6,1,6,0.00
2013-10-15,64.4,50.6,43.5,53.3,46.1,43.3,99,86,54,29.59,29.37,8,1,8,0.00
2013-10-16,69.1,52.2,42.4,58.7,47.2,42.2,99,85,52,29.39,29.34,7,0,7,0.00
2013-10-17,66.6,50.8,41.7,55.7,47.3,41.5,99,89,63,29.47,29.39,7,1,7,0.00
2013-10-18,61.9,47.7,39.4,54.6,45.1,39.1,99,92,66,29.45,29.35,6,1,6,0.01
2013-10-19,50.9,45.0,39.4,50.6,44.7,39.1,99,99,99,29.40,29.34,6,0,6,0.01
2013-10-20,50.4,46.7,44.4,50.1,46.5,44.2,99,99,99,29.41,29.34,5,0,5,0.00
2013-10-21,58.5,47.6,44.1,57.1,47.0,43.8,99,98,87,29.37,29.29,4,0,4,0.00
2013-10-22,66.0,49.8,39.7,58.9,48.1,39.5,99,94,73,29.33,29.23,4,0,3,0.01
2013-10-23,72.5,54.3,45.1,61.2,50.3,44.9,99,88,55,29.25,29.18,5,0,5,0.01
2013-10-24,67.1,52.5,41.7,59.2,48.1,41.3,99,87,59,29.29,29.20,6,1,7,0.00
2013-10-25,50.9,46.2,41.4,50.6,45.9,41.1,99,99,98,29.52,29.29,7,0,6,0.00
2013-10-26,57.0,49.0,43.3,52.1,46.8,43.1,99,93,74,29.53,29.34,7,1,7,0.00
2013-10-27,64.6,50.9,44.4,55.5,46.2,32.9,99,85,52,29.34,29.14,7,2,7,0.21
2013-10-28,65.1,50.9,42.4,38.3,31.5,26.5,67,49,24,29.24,29.13,8,1,9,0.00
2013-10-29,61.3,46.9,38.1,39.5,33.0,28.6,78,60,31,29.21,29.14,6,1,6,0.00
2013-10-30,55.2,46.8,40.3,44.9,38.1,32.1,99,73,47,29.30,29.20,10,1,10,0.18
2013-10-31,48.0,46.5,44.6,47.8,46.2,44.3,99,99,99,29.43,29.25,4,0,4,0.27
2013-11-1,50.4,48.4,47.1,50.1,48.2,46.9,99,99,99,29.44,29.00,7,1,7,0.46
2013-11-2,47.8,44.0,38.1,47.6,43.7,37.9,99,99,99,29.02,28.58,8,2,8,1.24
2013-11-3,53.6,39.8,33.1,50.1,36.8,32.0,99,90,59,29.29,29.02,8,1,8,0.02
2013-11-4,50.4,39.0,30.2,46.0,34.0,30.0,99,84,56,29.37,29.26,6,1,6,0.01
2013-11-5,41.4,39.4,36.1,41.1,38.5,32.5,99,97,71,29.44,29.21,6,1,6,0.11
2013-11-6,49.3,43.5,39.6,48.1,41.5,39.3,99,93,79,29.51,29.19,9,1,9,0.12
2013-11-7,47.3,44.8,41.5,47.0,44.5,40.9,99,99,95,29.19,28.84,10,2,10,0.87
2013-11-8,54.0,45.2,43.0,51.3,44.5,42.1,99,97,86,29.33,29.08,8,1,8,0.13
2013-11-9,48.0,43.9,40.8,47.8,43.6,40.6,99,99,99,29.33,29.27,4,0,4,0.07
2013-11-10,50.2,43.6,39.0,45.4,42.3,38.8,99,95,81,29.36,29.30,5,0,5,0.01
2013-11-11,58.5,47.4,43.3,45.5,41.5,38.5,92,81,60,29.36,29.18,6,0,6,0.00
2013-11-12,53.3,49.4,45.9,53.0,48.3,42.2,99,96,81,29.48,29.16,7,1,7,0.27
2013-11-13,57.6,50.1,45.5,55.3,47.7,45.2,99,92,71,29.57,29.47,8,2,9,0.02
2013-11-14,52.9,45.2,39.4,49.6,44.2,39.1,99,96,79,29.47,29.20,8,1,8,0.08
2013-11-15,42.6,40.1,36.7,42.4,39.8,36.4,99,99,99,29.20,28.42,15,2,21,1.49
2013-11-16,42.7,37.8,32.9,42.2,37.3,32.7,99,98,90,28.88,28.44,8,0,8,0.01
2013-11-17,47.8,41.6,35.2,45.5,40.5,35.0,99,96,88,29.03,28.88,15,3,15,0.11
2013-11-18,44.4,42.4,40.1,44.2,42.2,39.8,99,99,98,29.04,28.72,8,1,8,0.66
2013-11-19,44.8,38.3,28.9,40.7,30.8,20.5,99,77,38,29.25,28.72,21,6,21,0.01
2013-11-20,45.5,32.2,25.3,33.1,26.1,22.4,95,79,51,29.70,29.25,7,1,7,0.00
2013-11-21,45.9,31.5,24.1,36.1,26.2,22.9,99,82,54,29.85,29.69,4,0,4,0.00
2013-11-22,47.5,34.6,27.5,37.5,28.9,24.9,93,81,58,29.85,29.63,2,0,4,0.00
2013-11-23,49.8,37.9,31.6,42.0,33.8,29.5,99,86,65,29.64,29.39,6,0,6,0.00
2013-11-24,52.5,40.8,34.0,47.7,37.4,33.2,99,88,69,29.43,29.36,4,0,4,0.00
2013-11-25,58.6,43.9,36.9,45.3,38.8,35.7,98,83,59,29.49,29.43,9,0,9,0.00
2013-11-26,56.3,42.5,34.7,44.8,36.2,32.1,94,79,59,29.44,29.28,4,0,4,0.00
2013-11-27,54.5,46.5,41.5,41.6,38.1,34.5,90,73,60,29.28,29.15,6,1,6,0.00
2013-11-28,55.4,45.3,39.2,53.4,42.8,38.2,99,91,76,29.34,29.20,5,0,5,0.00
2013-11-29,46.2,44.3,43.0,46.0,43.9,42.7,99,98,95,29.46,29.34,6,0,6,0.27
2013-11-30,43.7,42.6,41.2,43.4,42.3,40.9,99,99,99,29.48,29.20,5,0,4,0.72
2013-12-1,50.5,44.7,37.9,50.3,43.5,34.4,99,96,78,29.20,28.84,17,3,17,0.57
2013-12-2,48.4,36.5,28.6,38.1,32.1,25.7,96,85,59,29.31,28.88,17,4,17,0.00
2013-12-3,43.5,31.3,24.8,27.8,20.4,16.0,90,65,41,29.52,29.31,9,1,9,0.00
2013-12-4,42.5,29.0,23.0,23.3,15.6,8.8,84,60,32,29.55,29.50,6,0,6,0.00
2013-12-5,36.5,26.1,21.4,19.0,13.6,10.0,69,59,38,29.50,29.37,8,1,6,0.00
2013-12-6,32.4,25.2,21.2,9.4,-0.5,-8.6,56,34,20,29.50,29.38,15,4,17,0.00
2013-12-7,34.7,21.9,15.6,7.0,-1.1,-10.2,55,37,18,29.57,29.49,8,1,7,0.00
2013-12-8,32.9,23.7,16.7,30.6,10.1,3.3,100,56,42,29.71,29.44,6,1,6,0.00
2013-12-9,27.7,25.6,23.2,27.4,22.3,14.5,99,88,68,29.72,29.63,5,1,5,0.00
2013-12-10,31.9,30.1,27.1,31.6,29.8,26.9,99,99,99,29.65,29.59,0,0,0,0.00
2013-12-11,37.6,33.2,30.9,37.3,33.0,30.7,99,99,99,29.59,29.31,4,0,4,0.06
2013-12-12,41.9,36.1,32.0,39.5,35.2,31.8,99,97,77,29.31,29.18,7,1,7,0.60
2013-12-13,41.4,39.4,36.9,41.1,39.2,36.6,99,99,99,29.59,29.28,4,0,4,0.22
2013-12-14,44.1,42.6,40.6,43.8,42.3,40.4,99,99,99,29.59,29.47,6,0,6,0.06
2013-12-15,46.6,43.3,38.5,46.3,43.0,38.2,99,99,99,29.58,29.44,8,1,8,0.12
2013-12-16,43.5,39.7,35.4,43.3,39.4,35.2,99,99,99,29.65,29.43,4,0,4,0.00
2013-12-17,39.6,37.9,34.7,39.3,37.6,34.4,99,99,99,29.43,29.23,5,0,4,0.04
2013-12-18,45.2,37.8,29.5,40.0,33.2,27.3,99,85,59,29.42,29.16,17,4,17,0.01
2013-12-19,36.0,30.3,27.0,27.2,23.9,21.7,92,77,67,29.51,29.36,5,1,5,0.00
2013-12-20,32.5,30.1,27.7,32.3,29.7,25.6,99,99,89,29.36,28.89,5,0,5,0.00
2013-12-21,37.8,33.6,31.8,37.5,33.3,31.6,99,99,99,29.33,29.03,1,0,2,0.32
2013-12-22,40.6,36.4,33.4,40.4,36.1,33.2,99,99,99,29.46,29.33,4,0,4,0.57
2013-12-23,50.0,42.9,36.3,48.5,41.4,35.9,99,95,74,29.64,29.21,21,3,21,0.45
2013-12-24,43.9,38.6,33.8,43.6,38.3,33.5,99,99,98,29.76,29.64,4,0,4,0.00
2013-12-25,42.3,35.9,31.6,42.0,35.7,31.4,99,99,98,29.71,29.57,2,0,4,0.05
2013-12-26,45.5,40.7,37.0,45.2,40.4,36.8,99,99,99,29.57,29.36,4,0,4,0.22
2013-12-27,44.2,41.0,38.5,44.0,40.7,38.2,99,99,99,29.50,29.22,7,1,8,0.46
2013-12-28,48.0,41.0,36.9,47.8,40.7,36.6,99,99,99,29.68,29.49,4,0,4,0.00
2013-12-29,39.7,38.5,36.5,39.5,38.2,36.2,99,99,99,29.63,29.48,5,0,4,0.06
2013-12-30,44.4,41.0,38.3,44.2,40.7,38.0,99,99,99,29.49,29.26,6,0,6,0.02
2013-12-31,43.2,41.7,39.6,42.9,41.4,39.1,99,99,99,29.56,29.33,1,0,4,0.09
2014-1-1,44.6,40.5,37.2,44.3,40.3,37.0,99,99,99,29.59,29.42,4,0,4,0.00
2014-1-2,43.5,41.4,37.2,43.3,41.1,37.0,99,99,99,29.43,28.97,18,2,18,1.18